[[[{"header":{"parameterUnit":"kt","parameterCategory":2,"dx":1,"dy":1,"la1":30.253999710083008,"la2":30.299108505249023,"lo1":-89.0895004272461,"lo2":-89.04439544677734,"nx":28,"ny":28,"refTime":"2022-09-27T21:00:00:Z","depth":"0","parameterNumber":2,"parameterNumberName":"U-component_of_CURRENTS"},"data":[-0.3376,-0.3324,-0.3342,-0.3265,-0.3286,-0.3224,-0.3234,-0.3339,-0.3578,-0.4004,-0.4457,-0.484,-0.4857,-0.4998,-0.4759,-0.451,-0.4275,-0.4128,-0.404,-0.4248,-0.4251,-0.4254,-0.4247,-0.4224,-0.4224,-0.3747,-0.3744,-0.3741,-0.3459,-0.3467,-0.3491,-0.3525,-0.3514,-0.3605,-0.3703,-0.3708,-0.3833,-0.422,-0.439,-0.4749,-0.4723,-0.4736,-0.4672,-0.4475,-0.4291,-0.4289,-0.4164,-0.4082,-0.4295,-0.429,-0.4276,-0.4276,-0.4276,-0.4276,-0.4276,-0.4276,-0.3613,-0.3611,-0.3649,-0.3683,-0.374,-0.3791,-0.3795,-0.3967,-0.409,-0.4292,-0.4434,-0.4636,-0.4687,-0.4669,-0.4577,-0.4463,-0.4367,-0.4328,-0.4329,-0.4237,-0.4139,-0.4362,-0.4359,-0.4359,-0.4359,-0.4359,-0.4359,0,-0.3723,-0.3753,-0.3783,-0.3841,-0.3885,-0.3948,-0.4036,-0.4097,-0.4271,-0.4383,-0.4517,-0.4585,-0.4654,-0.4643,-0.4597,-0.4514,-0.4344,-0.44,-0.4385,-0.4318,-0.4219,-0.4116,-0.433,-0.4341,-0.4341,-0.4342,-0.4342,-0.4342,-0.382,-0.3833,-0.3936,-0.3956,-0.3996,-0.4063,-0.4108,-0.4249,-0.4315,-0.4491,-0.4521,-0.4588,-0.4633,-0.4611,-0.4568,-0.4508,-0.4386,-0.4406,-0.4364,-0.4352,-0.4337,-0.4244,-0.4163,-0.4343,-0.4343,-0.4343,-0.4343,0,-0.3859,-0.3928,-0.3977,-0.4082,-0.4112,-0.4142,-0.4259,-0.4304,-0.4409,-0.4485,-0.4503,-0.4595,-0.4599,-0.4576,-0.4528,-0.4482,-0.439,-0.4411,-0.4402,-0.4386,-0.4337,-0.4335,-0.4244,-0.415,-0.4383,-0.4383,-0.4383,0,-0.3942,-0.3972,-0.4068,-0.409,-0.4142,-0.4225,-0.4284,-0.4348,-0.4437,-0.4492,-0.4535,-0.4569,-0.4539,-0.4536,-0.4477,-0.4436,-0.4441,-0.4374,-0.4359,-0.4341,-0.4339,-0.4308,-0.4302,-0.4362,-0.4362,-0.4362,-0.4362,0,-0.3957,-0.4055,-0.4094,-0.4124,-0.423,-0.4259,-0.4313,-0.439,-0.4437,-0.4495,-0.4525,-0.4529,-0.4529,-0.4489,-0.4445,-0.4426,-0.4421,-0.4384,-0.4353,-0.4353,-0.4321,-0.4318,-0.4336,-0.4362,-0.4362,-0.4362,-0.4362,0,-0.4014,-0.4061,-0.412,-0.4203,-0.4225,-0.4265,-0.4339,-0.4391,-0.4453,-0.4467,-0.4481,-0.4474,-0.4482,-0.4434,-0.4415,-0.4411,-0.4372,-0.4349,-0.4348,-0.4334,-0.43,-0.4281,-0.4322,-0.4304,-0.4322,-0.4322,-0.4322,0,-0.4007,-0.4073,-0.4117,-0.4178,-0.4215,-0.4262,-0.4312,-0.4356,-0.438,-0.4413,-0.4402,-0.4414,-0.4378,-0.4372,-0.4367,-0.4347,-0.4342,-0.4337,-0.4293,-0.4292,-0.4287,-0.4334,-0.4316,-0.4318,-0.4319,-0.4319,-0.4319,0,-0.3991,-0.4074,-0.4077,-0.4107,-0.4173,-0.4202,-0.4256,-0.4305,-0.4335,-0.4336,-0.4363,-0.4363,-0.4342,-0.4342,-0.4326,-0.4322,-0.4335,-0.429,-0.4288,-0.4287,-0.4325,-0.4328,-0.433,-0.4312,-0.4313,-0.4313,-0.4317,0,-0.4014,-0.4045,-0.4064,-0.4119,-0.4151,-0.4184,-0.4225,-0.4248,-0.4246,-0.4258,-0.4274,-0.4257,-0.4259,-0.4262,-0.4248,-0.4274,-0.4259,-0.4237,-0.4208,-0.4244,-0.4241,-0.4244,-0.4203,-0.4202,-0.4201,-0.4201,0,0,-0.3979,-0.4015,-0.4038,-0.4077,-0.4102,-0.412,-0.4157,-0.4177,-0.4196,-0.4203,-0.4177,-0.4188,-0.4175,-0.4204,-0.4214,-0.4209,-0.4199,-0.42,-0.4229,-0.4233,-0.4235,-0.4234,-0.4237,-0.4199,-0.4199,-0.4198,-0.4198,0,-0.3985,-0.4001,-0.4026,-0.4057,-0.4093,-0.4113,-0.4123,-0.4151,-0.4151,-0.4171,-0.415,-0.415,-0.4152,-0.4152,-0.4153,-0.4195,-0.4166,-0.4194,-0.4229,-0.4222,-0.4227,-0.423,-0.423,-0.4234,-0.4196,-0.4196,-0.4196,0,-0.3975,-0.3998,-0.4009,-0.4053,-0.4068,-0.4107,-0.409,-0.4114,-0.4138,-0.4101,-0.4113,-0.4101,-0.4093,-0.4109,-0.4113,-0.4098,-0.4133,-0.4124,-0.4128,-0.4131,-0.4122,-0.4128,-0.4133,-0.4067,-0.4067,-0.4066,0,0,-0.3979,-0.4,-0.4039,-0.4057,-0.4074,-0.4088,-0.41,-0.4102,-0.4107,-0.4103,-0.4091,-0.408,-0.4084,-0.408,-0.4079,-0.4097,-0.4084,-0.4109,-0.4115,-0.412,-0.4126,-0.4119,-0.4125,-0.4065,-0.4065,-0.4065,0,0,-0.3977,-0.4017,-0.4017,-0.4046,-0.4072,-0.4094,-0.4102,-0.4102,-0.4097,-0.4085,-0.4064,-0.4059,-0.4068,-0.4057,-0.4043,-0.4071,-0.4044,-0.4047,-0.408,-0.4087,-0.4093,-0.4099,-0.4011,0,0,0,0,0,-0.3999,-0.4018,-0.4018,-0.4026,-0.4061,-0.41,-0.4103,-0.4096,-0.4077,-0.4086,-0.4069,-0.4048,-0.4045,-0.4032,-0.4032,-0.4051,-0.405,-0.4053,-0.4055,-0.4101,-0.4109,-0.4116,0,0,0,0,0,0,-0.4002,-0.4012,-0.4018,-0.4043,-0.4051,-0.4098,-0.4069,-0.4068,-0.4076,-0.4071,-0.4053,-0.4047,-0.403,-0.4031,-0.4031,-0.405,-0.4011,-0.4051,-0.4053,-0.4055,-0.4104,-0.411,-0.4116,0,0,0,0,0,-0.4005,-0.4013,-0.407,-0.4042,-0.4049,-0.4052,-0.4067,-0.4066,-0.4065,-0.4054,-0.4048,-0.4059,-0.4032,-0.4029,-0.4031,-0.405,-0.4011,-0.4011,-0.4052,-0.4054,-0.4056,-0.4107,0,0,0,0,0,0,-0.4007,-0.4004,-0.4071,-0.4074,-0.4028,-0.4048,-0.4051,-0.4064,-0.4045,-0.4042,-0.4059,-0.4055,-0.4033,-0.4031,-0.4029,-0.4052,-0.4011,-0.4011,-0.4011,-0.4054,-0.4055,-0.4056,0,0,0,0,0,0,-0.4001,-0.4006,-0.4072,-0.4054,-0.4054,-0.4045,-0.4047,-0.4053,-0.4043,-0.4049,-0.4047,-0.4057,-0.4027,-0.4032,-0.4031,-0.404,-0.4011,-0.4011,-0.4011,-0.4011,-0.4055,-0.4056,0,0,0,0,0,0,-0.4003,-0.4008,-0.4053,-0.4053,-0.4053,-0.4072,-0.4047,-0.4075,-0.4054,-0.4049,-0.405,-0.4048,-0.4029,-0.4027,-0.4032,-0.4042,-0.404,-0.4011,-0.4011,-0.4011,-0.4011,0,0,0,0,0,0,0,-0.4005,-0.3975,-0.4064,-0.4052,-0.4052,-0.4094,-0.4094,-0.4094,-0.4054,-0.4052,-0.4051,-0.4049,-0.4011,-0.4011,-0.4011,-0.4044,0,0,-0.4011,-0.4011,0,0,0,0,0,0,0,0,-0.3973,-0.3974,-0.4065,-0.4065,-0.4066,-0.4094,-0.4094,-0.4094,-0.4054,-0.4052,-0.4051,-0.405,-0.4011,-0.4011,-0.4011,0,0,0,0,0,0,0,0,0,0,0,0,0,0,0,-0.4065,-0.4065,0,-0.4094,-0.4094,-0.4094,-0.4053,-0.4052,-0.4051,-0.405,-0.4011,-0.4011,-0.4011,0,0,0,0,0,0,0,0,0,0,0,0,0,0,0,0,0,0,0,0,0,0,0,0,0,0,0,0,0,0,0,0,0,0,0,0,0,0,0,0,0,0,0,0,0,0,0,0,0,0,0,0,0,0,0,0,0,0,0,0,0,0,0,0,0,0,0,0,0]}],[{"header":{"parameterUnit":"kt","parameterCategory":2,"dx":1,"dy":1,"la1":30.253999710083008,"la2":30.299108505249023,"lo1":-89.0895004272461,"lo2":-89.04439544677734,"nx":28,"ny":28,"refTime":"2022-09-27T21:00:00:Z","depth":"0","parameterNumber":3,"parameterNumberName":"V-component_of_CURRENTS"},"data":[-0.1793,-0.1946,-0.2033,-0.2278,-0.2383,-0.2536,-0.2588,-0.2644,-0.2556,-0.2303,-0.1908,-0.1559,-0.051,0.0827,0.1427,0.1411,0.1466,0.1478,0.1508,0.1228,0.1193,0.116,0.1173,0.1499,0.15,0.181,0.1814,0.1817,-0.1753,-0.1854,-0.1989,-0.2139,-0.2268,-0.2271,-0.2346,-0.2397,-0.2425,-0.2235,-0.2073,-0.1347,-0.0731,-0.0119,0.0672,0.0875,0.0864,0.0958,0.1041,0.1007,0.062,0.0614,0.0827,0.0827,0.0826,0.0826,0.0826,0.0826,-0.168,-0.176,-0.1858,-0.1988,-0.2074,-0.2162,-0.2225,-0.2218,-0.2211,-0.2101,-0.1875,-0.162,-0.0934,-0.0266,-0.0053,0.0437,0.0408,0.0534,0.0627,0.0693,0.0704,0.0254,0.0432,0.0432,0.0432,0.0432,0.0432,0,-0.1625,-0.1649,-0.1713,-0.1854,-0.1917,-0.1978,-0.2003,-0.2016,-0.1898,-0.1838,-0.1702,-0.1535,-0.1043,-0.0656,-0.0194,-0.0005,0.0254,0.019,0.0324,0.0429,0.0512,0.0536,0.0046,0.0184,0.0183,0.0182,0.0181,0.018,-0.1534,-0.1583,-0.1658,-0.1717,-0.1736,-0.1777,-0.1815,-0.1734,-0.1718,-0.1542,-0.1528,-0.1275,-0.1099,-0.0661,-0.0344,-0.0033,0.0067,0.0143,0.0111,0.0229,0.0349,0.0422,0.0414,0.0162,0.0164,0.0166,0.0168,0,-0.1489,-0.1497,-0.1567,-0.1593,-0.1608,-0.1647,-0.1639,-0.1638,-0.1531,-0.1477,-0.1441,-0.1217,-0.0989,-0.0739,-0.0486,-0.034,-0.0038,-0.0064,-0.0085,-0.0047,0.0193,0.0273,0.0572,0.0586,0.0107,0.011,0.0112,0,-0.1409,-0.1446,-0.1466,-0.1501,-0.1562,-0.1515,-0.153,-0.1476,-0.1388,-0.1358,-0.1185,-0.1119,-0.0883,-0.0716,-0.0569,-0.0339,-0.0355,-0.0211,-0.0168,-0.0177,-0.0172,-0.0015,0.0069,-0.0244,-0.0245,-0.0246,-0.0247,0,-0.1334,-0.1367,-0.1423,-0.1429,-0.1427,-0.1429,-0.1407,-0.1321,-0.1294,-0.1163,-0.1123,-0.0971,-0.089,-0.0751,-0.0564,-0.0582,-0.0358,-0.0361,-0.0219,-0.0214,-0.0156,-0.0148,0.0039,-0.0248,-0.0249,-0.0249,-0.025,0,-0.1257,-0.1292,-0.1353,-0.1363,-0.1365,-0.1364,-0.1316,-0.1283,-0.1166,-0.1111,-0.1011,-0.0921,-0.081,-0.0775,-0.0589,-0.0632,-0.0543,-0.0462,-0.0455,-0.0367,-0.0335,-0.022,-0.0172,-0.0041,-0.0364,-0.0366,-0.0367,0,-0.1196,-0.1256,-0.1231,-0.1264,-0.1289,-0.1218,-0.1202,-0.1144,-0.1069,-0.1005,-0.0899,-0.0842,-0.0787,-0.0757,-0.069,-0.0585,-0.0531,-0.0594,-0.0423,-0.0418,-0.0363,-0.0332,-0.0322,-0.0199,-0.0384,-0.0383,-0.0381,0,-0.1141,-0.1152,-0.1153,-0.117,-0.1133,-0.1126,-0.1096,-0.1045,-0.102,-0.0942,-0.0901,-0.0819,-0.0765,-0.0727,-0.0668,-0.0612,-0.0556,-0.0579,-0.0574,-0.0528,-0.0426,-0.0363,-0.0345,-0.053,-0.0528,-0.0527,-0.0395,0,-0.1088,-0.11,-0.111,-0.1105,-0.1088,-0.1089,-0.103,-0.0996,-0.095,-0.0899,-0.0837,-0.0759,-0.0694,-0.0673,-0.0638,-0.0592,-0.0571,-0.0551,-0.0522,-0.053,-0.0471,-0.0461,-0.0569,-0.0568,-0.0567,-0.0567,0,0,-0.1031,-0.1051,-0.1013,-0.1027,-0.102,-0.0949,-0.0964,-0.0919,-0.0857,-0.0831,-0.081,-0.0705,-0.0657,-0.0601,-0.0602,-0.0579,-0.054,-0.0574,-0.0534,-0.0531,-0.0528,-0.0472,-0.0463,-0.0565,-0.0565,-0.0564,-0.0564,0,-0.1009,-0.0993,-0.1015,-0.0996,-0.0966,-0.0927,-0.0927,-0.0875,-0.0843,-0.0809,-0.0754,-0.0707,-0.0647,-0.0596,-0.0565,-0.057,-0.0516,-0.0564,-0.0589,-0.0529,-0.0527,-0.0525,-0.047,-0.0463,-0.0562,-0.0562,-0.0562,0,-0.0968,-0.0955,-0.0958,-0.0932,-0.0904,-0.0896,-0.0847,-0.0829,-0.0815,-0.0743,-0.0711,-0.0663,-0.0603,-0.057,-0.0552,-0.0539,-0.0487,-0.0514,-0.0518,-0.0517,-0.0453,-0.0451,-0.045,-0.0466,-0.0466,-0.0466,0,0,-0.0953,-0.0961,-0.0918,-0.0923,-0.0912,-0.086,-0.0843,-0.0813,-0.0768,-0.0748,-0.0698,-0.0648,-0.0606,-0.058,-0.054,-0.0512,-0.0468,-0.0505,-0.051,-0.0514,-0.0515,-0.0453,-0.0451,-0.0466,-0.0466,-0.0466,0,0,-0.0938,-0.091,-0.0894,-0.09,-0.0866,-0.0809,-0.0804,-0.0773,-0.073,-0.0726,-0.0661,-0.0645,-0.0613,-0.0577,-0.058,-0.0531,-0.051,-0.0508,-0.0557,-0.0562,-0.0566,-0.0578,-0.0535,0,0,0,0,0,-0.09,-0.0917,-0.0903,-0.0899,-0.0853,-0.0821,-0.0811,-0.0765,-0.0748,-0.0743,-0.0692,-0.0661,-0.0564,-0.0565,-0.0553,-0.0553,-0.0462,-0.0463,-0.0464,-0.052,-0.0525,-0.053,0,0,0,0,0,0,-0.0898,-0.0894,-0.0902,-0.0851,-0.084,-0.082,-0.0782,-0.0769,-0.0747,-0.0741,-0.0671,-0.0659,-0.0614,-0.0569,-0.0558,-0.056,-0.0539,-0.0463,-0.0463,-0.0464,-0.0522,-0.0526,-0.053,0,0,0,0,0,-0.0896,-0.0893,-0.0839,-0.0849,-0.084,-0.0781,-0.0781,-0.077,-0.075,-0.0683,-0.067,-0.0717,-0.0616,-0.0603,-0.0562,-0.0566,-0.0546,-0.0542,-0.0463,-0.0463,-0.0464,-0.0524,0,0,0,0,0,0,-0.0895,-0.0873,-0.0835,-0.0829,-0.0846,-0.0781,-0.0772,-0.0772,-0.0692,-0.068,-0.0726,-0.0722,-0.0617,-0.0606,-0.0597,-0.0571,-0.0551,-0.0548,-0.0545,-0.0463,-0.0464,-0.0464,0,0,0,0,0,0,-0.0874,-0.0868,-0.0832,-0.0831,-0.0824,-0.078,-0.0772,-0.0736,-0.0691,-0.0738,-0.0733,-0.0725,-0.0629,-0.0609,-0.0602,-0.0545,-0.0556,-0.0552,-0.055,-0.0548,-0.0464,-0.0464,0,0,0,0,0,0,-0.087,-0.0865,-0.0832,-0.0827,-0.0821,-0.0749,-0.0745,-0.0699,-0.0698,-0.0742,-0.0697,-0.0696,-0.0633,-0.0624,-0.0605,-0.0552,-0.0547,-0.0556,-0.0553,-0.0551,-0.055,0,0,0,0,0,0,0,-0.0867,-0.092,-0.0873,-0.0824,-0.0819,-0.0775,-0.0773,-0.0771,-0.0698,-0.0698,-0.0697,-0.0696,-0.0577,-0.0573,-0.0569,-0.0558,0,0,-0.0556,-0.0554,0,0,0,0,0,0,0,0,-0.092,-0.092,-0.0873,-0.0872,-0.0871,-0.0775,-0.0773,-0.0772,-0.0698,-0.0698,-0.0697,-0.0696,-0.0576,-0.0573,-0.0569,0,0,0,0,0,0,0,0,0,0,0,0,0,0,0,-0.0873,-0.0872,0,-0.0774,-0.0773,-0.0772,-0.0698,-0.0698,-0.0697,-0.0697,-0.0575,-0.0572,-0.057,0,0,0,0,0,0,0,0,0,0,0,0,0,0,0,0,0,0,0,0,0,0,0,0,0,0,0,0,0,0,0,0,0,0,0,0,0,0,0,0,0,0,0,0,0,0,0,0,0,0,0,0,0,0,0,0,0,0,0,0,0,0,0,0,0,0,0,0,0]}]],[[{"header":{"parameterUnit":"kt","parameterCategory":2,"dx":1,"dy":1,"la1":30.253999710083008,"la2":30.299108505249023,"lo1":-89.0895004272461,"lo2":-89.04439544677734,"nx":28,"ny":28,"refTime":"2022-09-27T21:00:00:Z","depth":"2","parameterNumber":2,"parameterNumberName":"U-component_of_CURRENTS"},"data":[-0.3278,-0.322,-0.3236,-0.3148,-0.3179,-0.3082,-0.3088,-0.3044,-0.3084,-0.3032,-0.3045,-0.3256,-0.3287,-0.275,-0.2577,-0.234,-0.2464,-0.2224,-0.3182,-0.3005,-0.3049,-0.3106,-0.3004,0,0,0,0,0,-0.3363,-0.3383,-0.3405,-0.3436,-0.3408,-0.3514,-0.3604,-0.3537,-0.3588,-0.374,-0.3809,-0.3445,-0.3332,-0.3266,-0.295,-0.2918,-0.2794,-0.2772,-0.257,-0.2624,-0.2672,-0.2564,-0.2146,-0.2143,-0.214,-0.2137,0,0,-0.3526,-0.3524,-0.356,-0.3593,-0.3648,-0.3695,-0.3697,-0.3822,-0.3923,-0.4005,-0.42,-0.4175,-0.4093,-0.3836,-0.3645,-0.3474,-0.3739,-0.3526,-0.3536,-0.3554,-0.3498,-0.347,-0.3326,-0.333,-0.3334,-0.3338,-0.3341,0,-0.3633,-0.3663,-0.3692,-0.3748,-0.3791,-0.3851,-0.3937,-0.3995,-0.4165,-0.4263,-0.4393,-0.445,-0.4445,-0.4218,-0.4141,-0.4026,-0.3931,-0.3832,-0.4331,-0.3513,-0.3478,-0.3458,-0.3481,-0.3347,-0.3352,-0.3356,-0.3358,-0.336,-0.3728,-0.3741,-0.3841,-0.386,-0.39,-0.3966,-0.401,-0.4148,-0.4212,-0.4385,-0.4413,-0.4482,-0.4516,-0.4496,-0.4372,-0.4291,-0.4349,-0.3941,-0.385,-0.4286,-0.4268,-0.4266,-0.4264,-0.3415,-0.3408,-0.3402,-0.3398,0,-0.3765,-0.3832,-0.388,-0.3982,-0.4012,-0.4042,-0.4157,-0.4201,-0.4305,-0.438,-0.4398,-0.449,-0.4496,-0.4476,-0.443,-0.4385,-0.4339,-0.4315,-0.3953,-0.3897,-0.4264,-0.4262,-0.4285,-0.4285,-0.4285,-0.4285,-0.4286,0,-0.3845,-0.3875,-0.3968,-0.3989,-0.4041,-0.4122,-0.4181,-0.4243,-0.4332,-0.4385,-0.4429,-0.4463,-0.4437,-0.4435,-0.4378,-0.4339,-0.4345,-0.4276,-0.4261,-0.3936,-0.3909,-0.4227,-0.4222,-0.4267,-0.4267,-0.4267,-0.4267,0,-0.386,-0.3954,-0.3992,-0.4022,-0.4123,-0.4154,-0.4206,-0.4282,-0.4329,-0.4388,-0.4419,-0.4424,-0.4426,-0.4388,-0.4346,-0.4327,-0.4324,-0.4287,-0.4255,-0.4255,-0.3923,-0.3894,-0.4266,-0.4266,-0.4266,-0.4266,-0.4266,0,-0.3915,-0.396,-0.4017,-0.4096,-0.4118,-0.4158,-0.4231,-0.4282,-0.4344,-0.4359,-0.4375,-0.4369,-0.4378,-0.4332,-0.4315,-0.4311,-0.4273,-0.4251,-0.425,-0.4234,-0.4199,-0.386,-0.3826,-0.4225,-0.4224,-0.4224,-0.4224,0,-0.3907,-0.3971,-0.4012,-0.4072,-0.4107,-0.4154,-0.4203,-0.4246,-0.4271,-0.4305,-0.4295,-0.4308,-0.4273,-0.4269,-0.4265,-0.4246,-0.4242,-0.4236,-0.4193,-0.4192,-0.4186,-0.4234,-0.3863,-0.3837,-0.422,-0.4221,-0.4221,0,-0.3891,-0.3971,-0.3974,-0.4002,-0.4066,-0.4094,-0.4148,-0.4196,-0.4226,-0.4229,-0.4257,-0.4257,-0.4238,-0.4237,-0.4222,-0.4219,-0.4235,-0.4188,-0.4187,-0.4186,-0.4226,-0.4228,-0.423,-0.4213,-0.4213,-0.4213,-0.4218,0,-0.3912,-0.3942,-0.396,-0.4013,-0.4044,-0.4076,-0.4116,-0.4139,-0.4139,-0.415,-0.4168,-0.4152,-0.4154,-0.4157,-0.4144,-0.4171,-0.4156,-0.4134,-0.4104,-0.4142,-0.4139,-0.4141,-0.4098,-0.4097,-0.4096,-0.4096,0,0,-0.3878,-0.3912,-0.3933,-0.397,-0.3994,-0.4012,-0.4048,-0.4067,-0.4087,-0.4094,-0.4071,-0.4081,-0.4069,-0.4097,-0.4108,-0.4103,-0.4094,-0.4095,-0.4126,-0.4129,-0.4132,-0.4132,-0.4135,-0.4094,-0.4094,-0.4093,-0.4093,0,-0.3882,-0.3897,-0.3921,-0.3951,-0.3986,-0.4004,-0.4015,-0.4041,-0.4042,-0.4063,-0.4042,-0.4043,-0.4046,-0.4045,-0.4046,-0.4089,-0.4061,-0.4089,-0.4124,-0.4118,-0.4123,-0.4127,-0.4128,-0.4131,-0.4091,-0.4091,-0.4091,0,-0.3871,-0.3892,-0.3903,-0.3944,-0.3959,-0.3996,-0.3979,-0.4004,-0.4027,-0.399,-0.4004,-0.3993,-0.3984,-0.4001,-0.4005,-0.399,-0.4027,-0.4017,-0.4021,-0.4024,-0.4016,-0.4022,-0.4027,-0.3958,-0.3958,-0.3958,0,0,-0.3874,-0.3893,-0.393,-0.3947,-0.3964,-0.3977,-0.3989,-0.399,-0.3996,-0.3992,-0.3981,-0.3971,-0.3974,-0.3972,-0.3971,-0.3989,-0.3975,-0.4002,-0.4008,-0.4013,-0.4019,-0.4013,-0.4018,-0.3956,-0.3956,-0.3956,0,0,-0.3871,-0.3908,-0.3908,-0.3935,-0.3961,-0.398,-0.3989,-0.3989,-0.3985,-0.3974,-0.3953,-0.3948,-0.3959,-0.3948,-0.3934,-0.3963,-0.3935,-0.3938,-0.3972,-0.3979,-0.3985,-0.3991,-0.3901,0,0,0,0,0,-0.3891,-0.3909,-0.3909,-0.3917,-0.3949,-0.3986,-0.3989,-0.3982,-0.3965,-0.3974,-0.3958,-0.3937,-0.3935,-0.3923,-0.3922,-0.3942,-0.3941,-0.3943,-0.3946,-0.3994,-0.4002,-0.4009,0,0,0,0,0,0,-0.3894,-0.3903,-0.3909,-0.3931,-0.3939,-0.3984,-0.3956,-0.3954,-0.3963,-0.3959,-0.3942,-0.3937,-0.3919,-0.3922,-0.3921,-0.3941,-0.3901,-0.3942,-0.3944,-0.3946,-0.3997,-0.4003,-0.4009,0,0,0,0,0,-0.3896,-0.3904,-0.3957,-0.393,-0.3937,-0.394,-0.3954,-0.3952,-0.3953,-0.3941,-0.3936,-0.3948,-0.392,-0.3918,-0.3921,-0.3942,-0.3901,-0.3901,-0.3943,-0.3945,-0.3947,-0.4,0,0,0,0,0,0,-0.3898,-0.3895,-0.3958,-0.396,-0.3917,-0.3936,-0.3939,-0.3951,-0.3933,-0.393,-0.3946,-0.3943,-0.3922,-0.392,-0.3918,-0.3943,-0.3901,-0.3901,-0.3901,-0.3945,-0.3946,-0.3947,0,0,0,0,0,0,-0.3892,-0.3897,-0.3958,-0.3942,-0.3942,-0.3933,-0.3935,-0.394,-0.3931,-0.3937,-0.3935,-0.3945,-0.3917,-0.3921,-0.3919,-0.3928,-0.3901,-0.3901,-0.3901,-0.3901,-0.3946,-0.3947,0,0,0,0,0,0,-0.3894,-0.3898,-0.3941,-0.3941,-0.394,-0.3958,-0.3936,-0.3961,-0.3942,-0.3936,-0.3938,-0.3936,-0.3918,-0.3917,-0.3921,-0.393,-0.3928,-0.3901,-0.3901,-0.3901,-0.3901,0,0,0,0,0,0,0,-0.3895,-0.3868,-0.3951,-0.394,-0.3939,-0.3979,-0.3979,-0.3979,-0.3941,-0.394,-0.3938,-0.3937,-0.3902,-0.3902,-0.3902,-0.3931,0,0,-0.3901,-0.3901,0,0,0,0,0,0,0,0,-0.3866,-0.3867,-0.3952,-0.3952,-0.3953,-0.3979,-0.3979,-0.3979,-0.3941,-0.394,-0.3938,-0.3937,-0.3902,-0.3902,-0.3902,0,0,0,0,0,0,0,0,0,0,0,0,0,0,0,-0.3952,-0.3952,0,-0.3979,-0.3979,-0.3979,-0.3941,-0.394,-0.3939,-0.3938,-0.3902,-0.3902,-0.3902,0,0,0,0,0,0,0,0,0,0,0,0,0,0,0,0,0,0,0,0,0,0,0,0,0,0,0,0,0,0,0,0,0,0,0,0,0,0,0,0,0,0,0,0,0,0,0,0,0,0,0,0,0,0,0,0,0,0,0,0,0,0,0,0,0,0,0,0,0]}],[{"header":{"parameterUnit":"kt","parameterCategory":2,"dx":1,"dy":1,"la1":30.253999710083008,"la2":30.299108505249023,"lo1":-89.0895004272461,"lo2":-89.04439544677734,"nx":28,"ny":28,"refTime":"2022-09-27T21:00:00:Z","depth":"2","parameterNumber":3,"parameterNumberName":"V-component_of_CURRENTS"},"data":[-0.1678,-0.1823,-0.1908,-0.2139,-0.2254,-0.2371,-0.2421,-0.2374,-0.223,-0.2039,-0.1802,-0.1388,-0.0817,-0.0404,0.0054,0.035,0.0334,0.0397,0.0255,0.0093,0.0073,0.0345,0.0295,0,0,0,0,0,-0.164,-0.1751,-0.1884,-0.2032,-0.2143,-0.2163,-0.2236,-0.2229,-0.2218,-0.1997,-0.1811,-0.1317,-0.0794,-0.0332,0.0216,0.0534,0.0526,0.0593,0.0513,0.0496,0.0481,0.0462,0.0646,0.0647,0.0648,0.0649,0,0,-0.1576,-0.1655,-0.1752,-0.1881,-0.1967,-0.2053,-0.2115,-0.2085,-0.207,-0.1918,-0.1733,-0.1442,-0.0979,-0.0329,0.0033,0.0371,0.0317,0.0395,0.0385,0.0375,0.0355,0.0334,0.0508,0.0508,0.0507,0.0507,0.0507,0,-0.1518,-0.1543,-0.1607,-0.1746,-0.181,-0.187,-0.1895,-0.1908,-0.1791,-0.1727,-0.1594,-0.1429,-0.0943,-0.0552,-0.0092,0.0088,0.0187,0.0273,0.0167,0.0156,0.013,0.0151,0.0135,0.0269,0.0267,0.0266,0.0265,0.0265,-0.1427,-0.1476,-0.1549,-0.1608,-0.1627,-0.167,-0.1707,-0.1627,-0.1611,-0.1439,-0.1425,-0.1176,-0.1001,-0.0568,-0.0248,0.0062,0.0029,0.0228,0.0198,0.0065,0.0091,0.0077,0.0063,0.0247,0.025,0.0251,0.0253,0,-0.138,-0.1388,-0.1457,-0.1482,-0.1498,-0.1537,-0.153,-0.153,-0.1424,-0.1372,-0.1338,-0.1116,-0.0891,-0.0642,-0.0391,-0.0245,-0.0044,0.0028,0.0007,0.0044,0.0053,0.0043,0.0189,0.0192,0.0195,0.0198,0.02,0,-0.1298,-0.1336,-0.1354,-0.1389,-0.1451,-0.1403,-0.142,-0.1367,-0.128,-0.1252,-0.108,-0.1016,-0.078,-0.0615,-0.0468,-0.0241,-0.0256,-0.0113,-0.0071,-0.0079,-0.0075,-0.0175,-0.0179,-0.0144,-0.0145,-0.0146,-0.0147,0,-0.1222,-0.1254,-0.1309,-0.1315,-0.1313,-0.1316,-0.1294,-0.1209,-0.1182,-0.1055,-0.1016,-0.0866,-0.0787,-0.0648,-0.0461,-0.0478,-0.0258,-0.0259,-0.012,-0.0115,-0.0057,-0.0049,-0.0148,-0.0148,-0.0149,-0.0149,-0.0149,0,-0.1143,-0.1177,-0.1237,-0.1246,-0.1249,-0.1249,-0.1202,-0.1169,-0.1054,-0.1,-0.0902,-0.0813,-0.0703,-0.0667,-0.0483,-0.0525,-0.0437,-0.0356,-0.0349,-0.0263,-0.023,-0.0118,-0.0075,-0.0258,-0.026,-0.0261,-0.0262,0,-0.108,-0.114,-0.1114,-0.1147,-0.1172,-0.1101,-0.1086,-0.1028,-0.0953,-0.0891,-0.0786,-0.0731,-0.0675,-0.0647,-0.058,-0.0475,-0.0422,-0.0483,-0.0314,-0.0309,-0.0257,-0.0229,-0.022,-0.0101,-0.0279,-0.0277,-0.0276,0,-0.1025,-0.1033,-0.1035,-0.1052,-0.1015,-0.1008,-0.0978,-0.0927,-0.0904,-0.0826,-0.0788,-0.0705,-0.0652,-0.0614,-0.0555,-0.05,-0.0447,-0.0467,-0.0462,-0.0417,-0.0319,-0.026,-0.0242,-0.042,-0.0419,-0.0417,-0.0289,0,-0.0968,-0.0981,-0.0991,-0.0985,-0.0969,-0.097,-0.091,-0.0877,-0.0832,-0.0782,-0.0721,-0.0643,-0.0579,-0.0558,-0.0522,-0.0478,-0.0456,-0.0435,-0.0406,-0.0416,-0.0358,-0.0348,-0.0452,-0.0451,-0.045,-0.0449,0,0,-0.0911,-0.0931,-0.0892,-0.0907,-0.0899,-0.0828,-0.0844,-0.0798,-0.0737,-0.0711,-0.0691,-0.0586,-0.0538,-0.0482,-0.0485,-0.0461,-0.0423,-0.0457,-0.0419,-0.0416,-0.0413,-0.0359,-0.035,-0.0447,-0.0447,-0.0447,-0.0446,0,-0.0888,-0.0872,-0.0894,-0.0874,-0.0845,-0.0806,-0.0806,-0.0754,-0.0723,-0.0689,-0.0634,-0.0588,-0.0527,-0.0476,-0.0445,-0.0452,-0.0397,-0.0446,-0.0472,-0.0413,-0.0411,-0.0409,-0.0357,-0.035,-0.0444,-0.0444,-0.0444,0,-0.0846,-0.0832,-0.0835,-0.0809,-0.0781,-0.0773,-0.0724,-0.0707,-0.0693,-0.0621,-0.0589,-0.0542,-0.0481,-0.0448,-0.0431,-0.0417,-0.0367,-0.0393,-0.0397,-0.0396,-0.0333,-0.0332,-0.0331,-0.0343,-0.0343,-0.0343,0,0,-0.083,-0.0837,-0.0794,-0.08,-0.0789,-0.0737,-0.0719,-0.069,-0.0645,-0.0626,-0.0575,-0.0526,-0.0484,-0.0458,-0.0417,-0.0389,-0.0346,-0.0384,-0.0388,-0.0393,-0.0394,-0.0333,-0.0332,-0.0342,-0.0342,-0.0342,0,0,-0.0814,-0.0785,-0.0769,-0.0776,-0.0742,-0.0684,-0.0679,-0.0649,-0.0606,-0.0603,-0.0538,-0.0522,-0.0491,-0.0454,-0.0457,-0.0409,-0.0387,-0.0385,-0.0436,-0.0441,-0.0445,-0.0457,-0.0412,0,0,0,0,0,-0.0775,-0.0792,-0.0778,-0.0774,-0.0728,-0.0695,-0.0685,-0.064,-0.0624,-0.0619,-0.0569,-0.0538,-0.0441,-0.0442,-0.0429,-0.0431,-0.0339,-0.0339,-0.034,-0.0399,-0.0405,-0.041,0,0,0,0,0,0,-0.0772,-0.0768,-0.0777,-0.0725,-0.0714,-0.0694,-0.0657,-0.0644,-0.0623,-0.0617,-0.0548,-0.0536,-0.049,-0.0445,-0.0435,-0.0438,-0.0415,-0.0339,-0.0339,-0.034,-0.0401,-0.0406,-0.041,0,0,0,0,0,-0.0771,-0.0767,-0.0713,-0.0723,-0.0714,-0.0656,-0.0656,-0.0645,-0.0626,-0.0559,-0.0545,-0.0594,-0.0492,-0.0479,-0.0439,-0.0444,-0.0422,-0.0418,-0.0339,-0.034,-0.034,-0.0403,0,0,0,0,0,0,-0.0769,-0.0747,-0.0709,-0.0703,-0.0721,-0.0656,-0.0647,-0.0647,-0.0567,-0.0555,-0.0602,-0.0598,-0.0493,-0.0483,-0.0473,-0.0449,-0.0428,-0.0424,-0.0422,-0.034,-0.034,-0.034,0,0,0,0,0,0,-0.0748,-0.0742,-0.0706,-0.0706,-0.07,-0.0655,-0.0648,-0.061,-0.0566,-0.0614,-0.0609,-0.0601,-0.0506,-0.0485,-0.0478,-0.042,-0.0432,-0.0429,-0.0426,-0.0424,-0.034,-0.034,0,0,0,0,0,0,-0.0744,-0.0739,-0.0707,-0.0702,-0.0696,-0.0624,-0.0619,-0.0574,-0.0574,-0.0618,-0.0573,-0.0572,-0.0509,-0.05,-0.0481,-0.0427,-0.0422,-0.0432,-0.043,-0.0428,-0.0427,0,0,0,0,0,0,0,-0.0741,-0.0794,-0.0747,-0.0699,-0.0694,-0.0649,-0.0647,-0.0645,-0.0574,-0.0573,-0.0573,-0.0572,-0.0454,-0.045,-0.0446,-0.0433,0,0,-0.0433,-0.0431,0,0,0,0,0,0,0,0,-0.0794,-0.0794,-0.0747,-0.0746,-0.0745,-0.0649,-0.0647,-0.0646,-0.0574,-0.0573,-0.0573,-0.0572,-0.0453,-0.0449,-0.0446,0,0,0,0,0,0,0,0,0,0,0,0,0,0,0,-0.0747,-0.0746,0,-0.0648,-0.0647,-0.0646,-0.0574,-0.0573,-0.0573,-0.0573,-0.0452,-0.0449,-0.0446,0,0,0,0,0,0,0,0,0,0,0,0,0,0,0,0,0,0,0,0,0,0,0,0,0,0,0,0,0,0,0,0,0,0,0,0,0,0,0,0,0,0,0,0,0,0,0,0,0,0,0,0,0,0,0,0,0,0,0,0,0,0,0,0,0,0,0,0,0]}]],[[{"header":{"parameterUnit":"kt","parameterCategory":2,"dx":1,"dy":1,"la1":30.253999710083008,"la2":30.299108505249023,"lo1":-89.0895004272461,"lo2":-89.04439544677734,"nx":28,"ny":28,"refTime":"2022-09-27T21:00:00:Z","depth":"4","parameterNumber":2,"parameterNumberName":"U-component_of_CURRENTS"},"data":[-0.2061,-0.211,-0.2124,-0.2073,-0.2077,-0.2161,-0.2244,-0.2373,-0.2354,-0.2551,-0.2545,-0.2695,-0.2698,-0.2837,-0.27,-0.2715,-0.2689,-0.2897,-0.289,-0.2957,-0.2977,-0.2995,-0.2928,0,0,0,0,0,-0.2137,-0.2136,-0.2193,-0.2257,-0.2357,-0.2415,-0.2569,-0.2664,-0.2846,-0.2766,-0.2873,-0.2861,-0.282,-0.2886,-0.276,-0.2976,-0.2969,-0.2819,-0.2866,-0.2969,-0.2992,-0.2919,0,0,0,0,0,0,-0.2247,-0.227,-0.2374,-0.2443,-0.2555,-0.2578,-0.267,-0.2721,-0.2801,-0.3006,-0.2996,-0.3088,-0.3214,-0.312,-0.3081,-0.3009,-0.2963,-0.286,-0.2887,-0.2909,-0.2831,-0.2771,-0.257,0,0,0,0,0,-0.2337,-0.2429,-0.2498,-0.2609,-0.2699,-0.2783,-0.2897,-0.2919,-0.3092,-0.3261,-0.3252,-0.3243,-0.325,-0.3226,-0.3185,-0.3125,-0.3261,-0.3179,-0.319,-0.3152,-0.313,-0.3111,-0.3122,-0.3077,-0.308,-0.3081,-0.3082,0,-0.245,-0.2489,-0.2679,-0.273,-0.281,-0.2931,-0.2997,-0.3171,-0.3223,-0.3401,-0.3408,-0.3493,-0.3531,-0.3364,-0.3415,-0.3331,-0.3292,-0.3238,-0.3198,-0.3167,-0.314,-0.3146,-0.315,-0.3101,-0.3099,-0.3098,-0.3096,0,-0.2504,-0.2611,-0.27,-0.2863,-0.2921,-0.2988,-0.3156,-0.3211,-0.3354,-0.343,-0.3467,-0.3584,-0.3585,-0.3606,-0.3592,-0.3483,-0.341,-0.3346,-0.3549,-0.3528,-0.3184,-0.3181,-0.313,-0.3124,-0.3118,-0.3113,-0.3109,0,-0.2605,-0.2668,-0.2823,-0.2857,-0.2953,-0.3058,-0.3164,-0.3253,-0.3375,-0.343,-0.3532,-0.3563,-0.3613,-0.3622,-0.3588,-0.3475,-0.3579,-0.336,-0.3327,-0.3509,-0.3505,-0.3477,-0.347,-0.3544,-0.3544,-0.3544,-0.3544,0,-0.2645,-0.2765,-0.2836,-0.2875,-0.3007,-0.3075,-0.3155,-0.3272,-0.3338,-0.3454,-0.3503,-0.3558,-0.3593,-0.3582,-0.3564,-0.3557,-0.3564,-0.3542,-0.3355,-0.3343,-0.3474,-0.3466,-0.3544,-0.3544,-0.3544,-0.3544,-0.3544,0,-0.2709,-0.2762,-0.2848,-0.2957,-0.2985,-0.3054,-0.3175,-0.3249,-0.3357,-0.3406,-0.3467,-0.3492,-0.3543,-0.3513,-0.3533,-0.3527,-0.3506,-0.3493,-0.3492,-0.3291,-0.3234,-0.3374,-0.3459,-0.3459,-0.3458,-0.3458,-0.3457,0,-0.2712,-0.2785,-0.2834,-0.2923,-0.2962,-0.3037,-0.3111,-0.3189,-0.3257,-0.3334,-0.3366,-0.3426,-0.3413,-0.3441,-0.3457,-0.3453,-0.3465,-0.3451,-0.3413,-0.3412,-0.3232,-0.3266,-0.3445,-0.345,-0.3451,-0.3451,-0.3452,0,-0.2692,-0.2786,-0.2798,-0.2839,-0.2921,-0.2955,-0.3046,-0.312,-0.3181,-0.3245,-0.3311,-0.3367,-0.3375,-0.3389,-0.3393,-0.3408,-0.345,-0.3385,-0.3383,-0.3375,-0.3464,-0.328,-0.3266,-0.3439,-0.344,-0.3441,-0.3447,0,-0.2706,-0.2755,-0.2779,-0.2837,-0.2881,-0.2928,-0.2981,-0.3044,-0.3095,-0.3126,-0.3208,-0.3228,-0.3271,-0.3292,-0.3287,-0.3346,-0.3328,-0.3304,-0.3262,-0.3324,-0.3318,-0.3322,-0.3247,-0.3246,-0.3244,-0.3243,0,0,-0.2674,-0.2707,-0.2734,-0.277,-0.2804,-0.2844,-0.2888,-0.2932,-0.2997,-0.303,-0.3038,-0.3122,-0.314,-0.3196,-0.3227,-0.3232,-0.3228,-0.3233,-0.3297,-0.3303,-0.3309,-0.3306,-0.3312,-0.3241,-0.3241,-0.324,-0.324,0,-0.2651,-0.2685,-0.2717,-0.2748,-0.2797,-0.2817,-0.2843,-0.2887,-0.2926,-0.2995,-0.3,-0.3046,-0.3104,-0.3117,-0.3129,-0.321,-0.3184,-0.3229,-0.3281,-0.3286,-0.3294,-0.3301,-0.33,-0.3306,-0.3237,-0.3237,-0.3237,0,-0.2624,-0.2641,-0.2663,-0.2703,-0.2731,-0.277,-0.2766,-0.2818,-0.2863,-0.2854,-0.294,-0.2957,-0.297,-0.303,-0.3062,-0.3042,-0.3135,-0.3118,-0.3124,-0.3122,-0.3124,-0.3134,-0.3143,-0.3027,-0.3026,-0.3026,0,0,-0.2608,-0.2639,-0.2663,-0.2698,-0.2717,-0.2747,-0.2773,-0.2795,-0.2828,-0.2853,-0.2884,-0.2918,-0.2948,-0.2977,-0.3,-0.3057,-0.3038,-0.3093,-0.3103,-0.3111,-0.3114,-0.3118,-0.3128,-0.3024,-0.3024,-0.3023,0,0,-0.2595,-0.2623,-0.2637,-0.2673,-0.2705,-0.2721,-0.2758,-0.2778,-0.2826,-0.2844,-0.285,-0.2859,-0.293,-0.2929,-0.29,-0.2997,-0.2954,-0.296,-0.3004,-0.3016,-0.3025,-0.3021,-0.2873,0,0,0,0,0,-0.2588,-0.2615,-0.2628,-0.2637,-0.268,-0.2712,-0.272,-0.2751,-0.2769,-0.2799,-0.2831,-0.2823,-0.2914,-0.2888,-0.2895,-0.2944,-0.2996,-0.3001,-0.3006,-0.3074,-0.3087,-0.3098,0,0,0,0,0,0,-0.2591,-0.2599,-0.2627,-0.264,-0.2651,-0.271,-0.2704,-0.2713,-0.2766,-0.2772,-0.2816,-0.2822,-0.2818,-0.2884,-0.2891,-0.2938,-0.287,-0.2998,-0.3002,-0.3006,-0.3078,-0.3089,-0.3098,0,0,0,0,0,-0.2594,-0.2601,-0.2664,-0.2641,-0.265,-0.2694,-0.2704,-0.2712,-0.2764,-0.2772,-0.2781,-0.2792,-0.2816,-0.2825,-0.2888,-0.2935,-0.2866,-0.2868,-0.3001,-0.3004,-0.3007,-0.3084,0,0,0,0,0,0,-0.2596,-0.2605,-0.2666,-0.2671,-0.2645,-0.2693,-0.2701,-0.2711,-0.2762,-0.2771,-0.2744,-0.2746,-0.2816,-0.2823,-0.2829,-0.2936,-0.2862,-0.2864,-0.2866,-0.3003,-0.3006,-0.3008,0,0,0,0,0,0,-0.2602,-0.2608,-0.2669,-0.2673,-0.2678,-0.2692,-0.2699,-0.2723,-0.2763,-0.273,-0.2734,-0.2744,-0.2812,-0.2821,-0.2826,-0.2861,-0.2859,-0.2861,-0.2863,-0.2864,-0.3005,-0.3007,0,0,0,0,0,0,-0.2605,-0.2611,-0.2672,-0.2675,-0.268,-0.2729,-0.2714,-0.2761,-0.2758,-0.2728,-0.276,-0.2761,-0.2809,-0.2815,-0.2823,-0.2856,-0.286,-0.2859,-0.2861,-0.2862,-0.2863,0,0,0,0,0,0,0,-0.2608,-0.2562,-0.2643,-0.2678,-0.2682,-0.2711,-0.2712,-0.2713,-0.2759,-0.2759,-0.276,-0.2761,-0.2845,-0.2848,-0.285,-0.2852,0,0,-0.2859,-0.286,0,0,0,0,0,0,0,0,-0.2561,-0.2562,-0.2643,-0.2645,-0.2645,-0.2711,-0.2712,-0.2712,-0.2759,-0.2759,-0.276,-0.2761,-0.2846,-0.2848,-0.285,0,0,0,0,0,0,0,0,0,0,0,0,0,0,0,-0.2644,-0.2644,0,-0.2711,-0.2712,-0.2712,-0.2759,-0.2759,-0.276,-0.276,-0.2846,-0.2848,-0.285,0,0,0,0,0,0,0,0,0,0,0,0,0,0,0,0,0,0,0,0,0,0,0,0,0,0,0,0,0,0,0,0,0,0,0,0,0,0,0,0,0,0,0,0,0,0,0,0,0,0,0,0,0,0,0,0,0,0,0,0,0,0,0,0,0,0,0,0,0]}],[{"header":{"parameterUnit":"kt","parameterCategory":2,"dx":1,"dy":1,"la1":30.253999710083008,"la2":30.299108505249023,"lo1":-89.0895004272461,"lo2":-89.04439544677734,"nx":28,"ny":28,"refTime":"2022-09-27T21:00:00:Z","depth":"4","parameterNumber":3,"parameterNumberName":"V-component_of_CURRENTS"},"data":[-0.0897,-0.102,-0.1089,-0.125,-0.1348,-0.1468,-0.1508,-0.1477,-0.1412,-0.1331,-0.1141,-0.101,-0.0664,-0.0816,-0.0312,-0.0243,-0.0175,0.021,0.0214,0.0301,0.0296,0.0291,0.0231,0,0,0,0,0,-0.0875,-0.0963,-0.1089,-0.1224,-0.1345,-0.1411,-0.1469,-0.1463,-0.1414,-0.1334,-0.1258,-0.1048,-0.0688,-0.0525,-0.0311,-0.0225,0.0042,0.0031,0.0097,0.0298,0.0292,0.0235,0,0,0,0,0,0,-0.0851,-0.0922,-0.1031,-0.1153,-0.1278,-0.1363,-0.1389,-0.1378,-0.1366,-0.1239,-0.1199,-0.0939,-0.078,-0.0446,-0.0234,-0.002,0.0017,0.0065,0.0072,0.007,-0.0008,-0.007,-0.002,0,0,0,0,0,-0.0817,-0.0865,-0.0938,-0.1088,-0.1177,-0.1262,-0.1321,-0.1333,-0.1282,-0.1238,-0.1102,-0.0904,-0.0682,-0.0409,-0.0169,0.0025,0.0166,0.0235,0.0232,0.0202,0.0176,0.0197,0.0186,0.027,0.0269,0.0269,0.0268,0,-0.0767,-0.0818,-0.0935,-0.1004,-0.1043,-0.112,-0.1175,-0.1153,-0.1156,-0.1062,-0.1053,-0.0871,-0.0742,-0.0402,-0.0185,0.0099,0.0133,0.0219,0.0186,0.0165,0.019,0.0181,0.0172,0.0264,0.0264,0.0265,0.0265,0,-0.0742,-0.0774,-0.0858,-0.0923,-0.0955,-0.1009,-0.1057,-0.1076,-0.102,-0.1004,-0.0985,-0.082,-0.0634,-0.0423,-0.0203,-0.0084,0.0087,0.0147,0.005,0.0078,0.0168,0.0161,0.0256,0.0258,0.0259,0.0261,0.0262,0,-0.0697,-0.0748,-0.0801,-0.0839,-0.0922,-0.0906,-0.0957,-0.0932,-0.0892,-0.0889,-0.0762,-0.0722,-0.0522,-0.0385,-0.0246,-0.006,-0.0063,0.0051,0.0086,0.0004,-0.0002,0.0042,0.004,0.005,0.005,0.0049,0.0048,0,-0.0644,-0.0698,-0.0763,-0.0777,-0.0806,-0.083,-0.0833,-0.0791,-0.0788,-0.0713,-0.0695,-0.058,-0.0522,-0.0398,-0.0229,-0.0236,-0.0054,-0.0045,0.0054,0.0057,0.0037,0.0036,0.0047,0.0047,0.0047,0.0046,0.0046,0,-0.0589,-0.0627,-0.0697,-0.0735,-0.0744,-0.0763,-0.0758,-0.0748,-0.0679,-0.0647,-0.058,-0.0511,-0.043,-0.0387,-0.0232,-0.0263,-0.0182,-0.0108,-0.0102,-0.005,-0.0015,-0.001,-0.0019,-0.002,-0.0021,-0.0022,-0.0023,0,-0.0537,-0.06,-0.0589,-0.064,-0.0669,-0.0627,-0.0632,-0.0603,-0.0558,-0.0528,-0.0447,-0.0418,-0.036,-0.0344,-0.029,-0.0198,-0.0157,-0.0203,-0.0055,-0.0051,-0.003,-0.0031,-0.0144,-0.0037,-0.0035,-0.0034,-0.0033,0,-0.0487,-0.0511,-0.0516,-0.0541,-0.0525,-0.053,-0.0523,-0.05,-0.0498,-0.0444,-0.0432,-0.0372,-0.033,-0.0302,-0.0252,-0.0208,-0.0173,-0.0171,-0.0167,-0.013,-0.0072,-0.0049,-0.0039,-0.0148,-0.0147,-0.0146,-0.0043,0,-0.0442,-0.0463,-0.0476,-0.0482,-0.0479,-0.0489,-0.0452,-0.0437,-0.041,-0.0377,-0.0345,-0.0284,-0.0243,-0.0228,-0.0195,-0.0172,-0.0148,-0.0126,-0.0095,-0.0116,-0.0067,-0.006,-0.0126,-0.0125,-0.0123,-0.0123,0,0,-0.0389,-0.0413,-0.0386,-0.0404,-0.0407,-0.0355,-0.0378,-0.0349,-0.031,-0.0299,-0.0281,-0.0212,-0.0176,-0.0145,-0.0152,-0.0133,-0.0098,-0.0128,-0.0112,-0.0111,-0.011,-0.0065,-0.0059,-0.0121,-0.012,-0.012,-0.012,0,-0.0366,-0.0361,-0.0384,-0.0374,-0.0359,-0.0333,-0.0337,-0.0303,-0.0286,-0.0271,-0.0227,-0.0198,-0.0157,-0.0122,-0.01,-0.0119,-0.0069,-0.0116,-0.015,-0.0104,-0.0105,-0.0105,-0.0062,-0.0057,-0.0117,-0.0117,-0.0117,0,-0.0326,-0.0318,-0.0326,-0.0313,-0.0297,-0.0298,-0.0258,-0.0253,-0.0251,-0.019,-0.0181,-0.0144,-0.0097,-0.0082,-0.0073,-0.0058,-0.0036,-0.0052,-0.0057,-0.0056,-0.0006,-0.0008,-0.0009,0.0009,0.0009,0.0009,0,0,-0.0309,-0.0321,-0.0292,-0.0305,-0.0299,-0.0264,-0.0255,-0.0236,-0.0206,-0.0195,-0.0159,-0.0124,-0.0095,-0.008,-0.005,-0.0037,0.0002,-0.004,-0.0046,-0.0051,-0.0052,-0.0005,-0.0006,0.0009,0.0009,0.0009,0,0,-0.0293,-0.0276,-0.0268,-0.0282,-0.0261,-0.0219,-0.0223,-0.0201,-0.0175,-0.0176,-0.0124,-0.0113,-0.0099,-0.0068,-0.0066,-0.0045,-0.0017,-0.0017,-0.0071,-0.0077,-0.0083,-0.0093,-0.0026,0,0,0,0,0,-0.0261,-0.028,-0.0273,-0.0271,-0.0246,-0.0225,-0.0219,-0.0191,-0.0181,-0.0183,-0.0148,-0.0121,-0.0057,-0.0053,-0.0044,-0.0056,0.0017,0.0015,0.0014,-0.0051,-0.0059,-0.0065,0,0,0,0,0,0,-0.026,-0.0259,-0.0272,-0.0235,-0.0228,-0.0225,-0.0196,-0.0187,-0.018,-0.0177,-0.0128,-0.0119,-0.0083,-0.0056,-0.0047,-0.0061,-0.0029,0.0016,0.0015,0.0014,-0.0054,-0.006,-0.0066,0,0,0,0,0,-0.0259,-0.0258,-0.0231,-0.0233,-0.0227,-0.0192,-0.0195,-0.0188,-0.0182,-0.013,-0.0121,-0.0163,-0.0084,-0.0075,-0.0051,-0.0065,-0.0034,-0.0031,0.0015,0.0015,0.0014,-0.0057,0,0,0,0,0,0,-0.0258,-0.0243,-0.0229,-0.0225,-0.0233,-0.0191,-0.0186,-0.0189,-0.0135,-0.0127,-0.0161,-0.0159,-0.0085,-0.0077,-0.007,-0.007,-0.0039,-0.0036,-0.0034,0.0015,0.0014,0.0013,0,0,0,0,0,0,-0.0243,-0.024,-0.0226,-0.0228,-0.0224,-0.0191,-0.0186,-0.0158,-0.0134,-0.0168,-0.0165,-0.0161,-0.0093,-0.0079,-0.0074,-0.003,-0.0042,-0.0039,-0.0037,-0.0036,0.0014,0.0014,0,0,0,0,0,0,-0.0241,-0.0238,-0.0228,-0.0225,-0.0222,-0.0176,-0.0163,-0.0137,-0.0143,-0.0171,-0.0143,-0.0142,-0.0095,-0.0089,-0.0076,-0.0035,-0.0031,-0.0042,-0.004,-0.0039,-0.0038,0,0,0,0,0,0,0,-0.0239,-0.027,-0.0253,-0.0223,-0.022,-0.019,-0.0189,-0.0188,-0.0143,-0.0143,-0.0143,-0.0142,-0.0058,-0.0055,-0.0052,-0.0039,0,0,-0.0042,-0.0041,0,0,0,0,0,0,0,0,-0.027,-0.027,-0.0253,-0.0253,-0.0252,-0.019,-0.0189,-0.0188,-0.0143,-0.0143,-0.0143,-0.0143,-0.0057,-0.0055,-0.0052,0,0,0,0,0,0,0,0,0,0,0,0,0,0,0,-0.0253,-0.0253,0,-0.019,-0.0189,-0.0188,-0.0143,-0.0143,-0.0143,-0.0143,-0.0056,-0.0054,-0.0052,0,0,0,0,0,0,0,0,0,0,0,0,0,0,0,0,0,0,0,0,0,0,0,0,0,0,0,0,0,0,0,0,0,0,0,0,0,0,0,0,0,0,0,0,0,0,0,0,0,0,0,0,0,0,0,0,0,0,0,0,0,0,0,0,0,0,0,0,0]}]]]